Dewpoint
51 51 51 50 49 50 51 45 38 54 45 35 37 33 32 40 36 36 36 33 32 31 33 33 32 32 34 39 37 30 31 31 28 25 27 30 28 28 28 24 19 26 26 21
51 50 50 49 49 52 49 41 48 55 42 33 35 35 36 37 33 34 34 36 36 38 36 33 35 37 39 36 34 34 33 30 26 24 25 28 27 30 28 27 28 25 30 20
50 50 50 49 49 52 50 48 43 47 41 38 33 33 34 34 38 37 36 36 38 38 37 38 36 37 38 38 36 40 37 29 28 25 23 27 24 30 27 28 28 24 25 21
50 50 49 49 49 52 51 44 42 44 38 37 33 33 35 34 34 37 36 35 36 36 35 36 36 37 35 35 40 38 34 29 28 27 28 26 22 23 29 26 26 26 23 23
49 49 49 49 49 51 51 43 40 39 38 40 34 37 35 34 36 37 35 35 37 37 35 34 36 36 34 29 37 36 34 31 28 27 29 28 25 24 24 28 26 25 26 25
49 49 48 48 49 50 48 50 45 39 37 38 33 35 37 35 39 41 39 37 37 36 38 39 39 39 38 35 36 35 32 32 28 25 24 21 23 24 25 25 26 27 25 26
49 48 48 48 50 50 50 50 45 39 33 37 33 36 39 37 38 38 41 39 37 38 40 37 35 35 38 37 35 35 30 27 24 24 21 17 20 27 25 25 26 27 29 32
48 48 48 48 50 50 54 52 47 39 33 34 35 39 41 41 42 42 42 43 41 39 34 35 31 31 33 33 35 31 31 29 25 26 19 17 15 22 28 29 25 30 29 32
48 48 49 49 50 50 54 52 50 43 37 35 38 41 41 39 39 40 43 43 41 36 32 32 29 28 28 25 32 35 30 30 31 24 21 17 20 23 32 30 28 30 34 35
48 48 48 49 50 50 54 53 50 48 43 46 43 41 40 41 40 39 40 39 40 37 32 32 30 28 25 25 25 30 32 31 30 21 26 24 24 26 32 24 26 33 36 36
47 48 49 50 50 50 53 52 53 49 45 47 49 48 42 41 41 39 41 39 39 35 34 35 30 32 30 28 28 32 30 31 30 24 25 24 28 32 32 35 34 35 38 37
48 49 49 49 49 50 53 52 54 51 48 47 49 48 49 49 44 43 41 40 39 39 35 32 31 32 33 29 29 32 28 32 31 29 30 33 31 35 36 36 35 37 38 38
48 49 50 49 50 51 52 53 51 50 46 46 46 46 48 48 49 48 41 40 42 38 38 35 33 32 33 31 31 32 32 31 32 31 30 31 34 35 36 39 39 39 40 40
49 49 50 50 50 51 52 50 50 48 44 37 43 47 46 48 50 50 46 43 41 40 38 35 34 34 33 32 31 33 32 33 31 31 33 34 34 38 39 38 40 40 40 40
49 50 50 50 50 50 51 51 50 49 43 39 40 44 45 46 48 46 45 43 43 41 38 35 36 33 35 35 34 33 34 33 33 33 33 33 34 37 41 40 40 40 36 30
49 50 50 50 49 49 48 44 48 47 46 42 37 42 42 44 46 45 45 45 43 41 40 35 37 40 36 34 33 35 37 38 37 35 38 37 39 41 41 40 36 30 28 27
49 48 48 49 48 48 40 38 46 46 45 40 36 37 39 41 43 43 43 43 42 42 40 36 38 39 38 34 33 37 38 38 40 41 41 39 39 37 30 28 29 33 34 34
48 48 48 48 48 48 47 47 46 45 38 38 34 33 36 41 38 38 42 39 40 40 39 38 36 38 36 35 35 34 35 36 39 39 36 32 29 30 31 34 35 34 33 32
47 47 47 47 46 44 46 46 45 44 40 33 30 32 32 40 37 37 39 39 34 38 35 37 38 34 33 31 31 32 34 34 36 31 32 34 35 35 34 34 33 33 32 32
46 46 42 39 43 45 44 41 39 38 37 37 32 35 34 39 36 34 36 35 34 33 34 37 34 33 31 34 35 35 35 35 32 33 34 34 34 34 34 34 34 33 32 32
44 41 39 44 44 41 36 34 34 34 32 36 35 36 35 38 36 34 34 33 33 30 30 34 32 31 31 35 35 35 35 35 35 36 35 36 36 34 34 33 33 32 30 27
43 43 42 40 38 35 34 33 34 32 32 34 35 35 38 36 36 34 35 31 32 28 34 33 28 29 35 36 36 37 37 37 36 35 35 35 35 35 33 29 26 26 28 29
42 38 37 37 34 32 27 29 32 32 33 34 34 33 34 36 37 34 34 32 31 34 32 30 30 33 36 36 33 33 33 34 34 33 32 28 26 27 28 28 28 28 28 28
34 32 32 28 32 32 32 32 33 32 33 33 34 33 34 33 34 33 33 31 32 30 28 25 31 34 33 33 30 26 25 26 26 25 26 26 27 27 27 25 25 24 27 28
34 33 28 29 31 32 32 32 33 33 34 34 34 33 34 32 32 31 30 27 24 24 24 30 31 29 27 27 26 25 26 25 27 27 27 25 25 26 26 28 28 27 26 26
33 32 30 32 31 31 32 32 32 34 33 34 34 32 31 28 28 26 25 24 21 25 30 31 32 32 33 33 33 28 28 27 27 27 28 27 26 26 27 28 28 26 26 24
31 31 33 32 32 32 32 33 33 35 34 31 30 25 25 28 24 24 27 25 26 31 32 32 32 33 34 34 32 30 28 28 29 29 28 28 28 27 25 23 20 23 24 24
Lifted_Index
2 3 3 3 3 3 2 2 1 -0 0 1 2 2 2 1 1 1 1 2 2 2 2 1 1 1 2 2 2 1 1 1 1 1 2 3 3 3 3 2 2 2 1 1
3 3 3 3 3 3 2 1 1 0 1 2 2 2 2 1 1 1 1 1 2 2 1 1 1 1 2 2 2 2 1 1 1 1 2 3 3 3 3 3 2 2 2 2
3 3 3 3 3 2 1 1 1 1 1 2 2 2 2 1 1 1 1 1 1 1 1 2 2 2 2 2 2 2 2 2 2 2 2 3 3 3 3 3 3 2 2 2
3 3 3 3 3 2 1 1 1 1 2 3 3 2 2 1 1 1 1 1 1 1 1 1 1 1 1 1 1 2 3 3 3 3 3 3 3 3 3 3 3 3 3 3
3 3 3 3 3 2 0 1 1 2 3 3 3 3 2 1 1 1 1 1 1 1 1 1 1 1 1 1 2 2 3 4 3 3 4 4 3 3 4 3 3 3 3 3
3 3 3 3 3 1 0 0 1 2 3 3 3 3 2 1 1 1 1 1 1 1 1 1 1 1 1 2 2 3 4 4 4 3 3 3 3 3 4 3 3 3 3 4
3 3 3 3 2 1 -0 -1 0 2 3 3 3 3 2 2 1 2 2 2 2 2 1 1 1 2 2 2 3 3 4 4 4 3 3 3 3 4 4 4 4 4 4 4
3 3 3 2 2 0 -1 -2 -1 1 2 3 3 3 2 1 1 2 2 2 2 2 2 1 2 2 2 3 3 3 4 4 4 3 3 3 4 5 5 4 4 5 5 5
3 2 2 2 2 -0 -2 -2 -1 0 2 3 3 2 2 1 1 1 2 2 2 2 2 2 2 2 2 3 3 3 4 4 4 4 3 4 5 6 5 5 5 5 6 6
2 1 1 2 1 -0 -2 -2 -2 -1 1 2 2 2 2 2 1 1 1 2 2 2 2 2 2 2 3 3 3 4 4 4 4 4 4 4 6 6 6 5 6 6 6 6
1 1 1 1 1 -0 -1 -2 -2 -1 0 1 2 2 2 2 1 1 1 1 2 2 2 2 2 2 3 3 4 4 4 4 5 5 5 5 6 7 6 6 6 6 6 5
0 0 0 1 1 0 -1 -1 -1 -1 0 1 1 1 1 1 2 1 1 1 2 2 2 3 3 3 4 4 4 5 5 5 5 5 6 6 7 7 6 6 5 5 5 5
-1 -0 0 1 1 -0 -1 -1 -1 -0 -0 0 1 1 1 1 2 2 1 1 2 2 2 3 3 4 4 5 5 5 6 6 6 6 6 7 7 6 6 5 5 4 4 4
-1 -1 -1 -0 -0 -0 -1 -1 -0 -0 -0 -0 0 0 1 1 2 2 1 1 2 2 3 3 3 4 5 5 5 6 6 6 7 7 7 6 6 6 5 5 4 4 3 3
-1 -1 -1 -1 -1 -0 -0 -0 0 0 0 -0 -0 0 0 1 1 1 1 1 2 2 2 3 3 4 5 5 6 6 6 6 6 6 6 5 5 5 4 4 4 3 3 3
-1 -1 -1 -1 -1 -0 0 1 1 1 1 1 0 0 0 0 1 1 1 1 1 2 2 3 3 4 5 5 5 5 5 5 5 5 4 4 4 4 4 3 3 3 3 3
-1 -0 -0 -0 0 0 1 1 2 2 2 2 2 1 1 1 1 1 1 1 1 2 2 3 3 4 4 5 4 4 4 4 4 4 4 4 4 4 4 3 3 3 3 3
1 1 1 1 1 1 1 2 2 3 3 3 3 3 2 2 2 2 2 2 3 3 3 4 4 4 4 4 4 3 3 3 3 4 4 4 4 4 4 4 4 4 5 6
2 2 2 2 2 2 1 2 2 3 3 4 4 3 3 3 3 3 3 3 4 4 4 4 4 4 4 4 3 3 3 3 4 4 4 4 4 4 5 5 6 6 7 8
3 3 2 2 2 2 2 2 2 3 3 3 3 3 3 3 3 3 3 3 4 4 4 4 4 4 4 4 4 4 5 5 5 5 5 5 5 6 6 7 8 9 9 10
3 2 2 2 2 2 2 2 2 2 2 2 2 2 2 3 3 3 3 3 3 4 4 4 4 4 4 5 6 6 6 6 6 6 6 7 7 8 8 9 10 10 11 11
2 2 2 2 2 2 1 1 1 1 1 2 2 2 2 3 3 3 3 3 3 4 4 3 3 4 5 6 7 7 8 8 8 8 9 9 9 10 10 10 11 11 11 11
2 2 2 2 2 2 1 1 1 1 2 2 2 2 3 3 3 3 3 3 3 3 3 3 3 5 6 7 8 9 9 10 10 10 10 10 11 11 11 11 11 11 11 11
2 2 2 2 2 2 2 2 2 2 2 2 2 3 3 3 3 3 3 3 3 3 2 3 4 6 7 8 9 9 10 10 10 10 10 11 11 11 11 11 11 10 10 9
2 2 2 3 3 2 2 2 2 3 3 3 3 3 3 3 3 2 2 2 2 2 3 4 6 7 8 8 9 10 10 10 10 10 10 10 10 10 10 10 9 9 8 8
3 3 3 3 3 3 3 3 3 3 3 3 3 3 3 3 3 3 2 2 2 3 4 6 7 7 8 8 8 9 9 9 9 9 9 9 9 9 9 8 8 8 8 8
4 4 4 4 3 3 3 3 4 4 4 3 3 3 3 3 3 3 3 3 3 4 6 7 7 7 7 8 8 8 8 8 8 8 9 9 8 8 8 7 7 8 8 9